TITAN 3C TRANSTAGE DEB, 59978

Orbit data source: Space-Track

TITAN 3C TRANSTAGE DEB, 59978 is space debris in GEO originally from a launch on Thu, 26 Sep 1968 UTC launched from the Air Force Eastern Test Range (AFETR). Debris objects in space refer to the collection of defunct objects orbiting the Earth. Examples of debris include non-operational satellites, rocket bodies, and fragments generated from explosions, collisions, or faulty payload assembly.

Not visible in the next 10 days
Identifier
59978, 1968-081AL
Orbit
GEO
Country
Flag of USUS
Related business
Manufacturer
Unknown
Mission
Spacecraft
Bus & Motor
Unknown
Mass
Unknown
Launch date (UTC)
1968-09-26 (57 years ago)
Launch vehicle
Unknown
Launch site
Air Force Eastern Test Range (AFETR)
Object type
Payload
Rocket body
Debris
Shape & HBR
Unknown
Radar Cross Section
RCS unknown

Expand to show TLE details & history
Last TLE update: 6 days ago

TLE from 6 days ago
0 TITAN 3C TRANSTAGE DEB
1 59978U 68081AL  25254.06111462 -.00000092  00000-0  00000-0 0  9992
2 59978   1.5983  50.3399 0093375 223.3034 136.7043  1.02051130 26969
Epoch: 2025-09-11T01:28Z
TLE epoch observation values (Epoch: 2025-09-11T01:28:00.303Z)
Latitude
-0°
Longitude
38.72977°
Altitude
35,577.565 km
Speed
3.072 km/s
True Right ascension
03h 24m 14s
True Declination
0° 00' 00"
Sunlit
Object was in daylight at epoch
Visualization orbit readout
Latitude
Unknown
Longitude
Unknown
Altitude
Unknown
Speed
Unknown
Apparent Right ascension
Unknown
Apparent Declination
Unknown
Sunlit
N/A
Visualization observer readout
Local Sidereal Time
12:27:22
Azimuth
Unknown
Elevation
Unknown
Doppler factor
Unknown
Orbital elements
Apogee altitude
35,685.257 km
Perigee altitude
34,906.99 km
Semi-major axis
41,674.26 km
Eccentricity
0.00934
Inclination
1.5983°
RAAN
50.3399°
Arg. of periapsis
223.3034°
True anomaly
137.43186°
Mean anomaly
136.7043°
Eccentric anomaly
137.0687°
Mean motion
0.25512 °/min
Orbital period
1,411.11 mins
BSTAR
0
Loading maneuver chart data...
Computing Atmospheric mass density...

Documentation

Showing up to 5 results
|